When you browse on this site, cookies collect data to enhance your experience and personalize the content and advertising you see.
Visit our Privacy Policy to learn more. By continuing to use the site, you agree to this use of cookies and data.
  • In Romania
  • List of Countries
  • For 7 days
  • Water Temperature
  • Weather Map
  • Weather Widgets
  • user-avatar
    Login

    Hourly Weather San Carlos

    Today, 29 January, Wednesday

    Time Temperature Precipitation Wind Pressure Humidity
    00:00 +26°C° 0 mm 2 mps 744 mmHg 71%
    01:00 +25°C° 0 mm 1 mps 744 mmHg 73%
    02:00 +25°C° 0 mm 1 mps 744 mmHg 74%
    03:00 +24°C° 0 mm 1 mps 744 mmHg 76%
    04:00 +24°C° 0 mm 2 mps 744 mmHg 77%
    05:00 +24°C° 0 mm 1 mps 744 mmHg 76%
    06:00 +25°C° 0 mm 1 mps 745 mmHg 74%
    07:00 +25°C° 0 mm 1 mps 745 mmHg 72%
    08:00 +28°C° 0 mm 1 mps 746 mmHg 60%
    09:00 +32°C° 0 mm 1 mps 746 mmHg 48%
    10:00 +36°C° 0 mm 1 mps 746 mmHg 36%
    11:00 +37°C° 0 mm 1 mps 746 mmHg 32%
    12:00 +39°C° 0 mm 1 mps 745 mmHg 29%
    13:00 +40°C° 0 mm 1 mps 744 mmHg 25%
    14:00 +39°C° 0 mm 1 mps 744 mmHg 28%
    15:00 +37°C° 0 mm 1 mps 743 mmHg 30%
    16:00 +37°C° 0 mm 2 mps 743 mmHg 32%
    17:00 +34°C° 0 mm 2 mps 743 mmHg 42%
    18:00 +31°C° 0 mm 2 mps 743 mmHg 52%
    19:00 +28°C° 0 mm 2 mps 743 mmHg 62%
    20:00 +27°C° 0 mm 2 mps 744 mmHg 64%
    21:00 +26°C° 0 mm 2 mps 744 mmHg 65%
    22:00 +25°C° 0 mm 2 mps 745 mmHg 66%
    23:00 +25°C° 0 mm 2 mps 744 mmHg 71%

    Tomorrow, 30 January, Thursday

    Time Temperature Precipitation Wind Pressure Humidity
    00:00 +24°C° 0 mm 2 mps 744 mmHg 76%
    01:00 +23°C° 0 mm 2 mps 744 mmHg 81%
    02:00 +23°C° 0 mm 1 mps 744 mmHg 82%
    03:00 +23°C° 0 mm 1 mps 744 mmHg 84%
    04:00 +23°C° 0 mm 1 mps 744 mmHg 85%
    05:00 +24°C° 0 mm 1 mps 745 mmHg 82%
    06:00 +24°C° 0 mm 1 mps 745 mmHg 80%
    07:00 +25°C° 0 mm 1 mps 746 mmHg 78%
    08:00 +28°C° 0 mm 1 mps 746 mmHg 65%
    09:00 +32°C° 0 mm 1 mps 746 mmHg 51%
    10:00 +36°C° 0 mm 1 mps 747 mmHg 38%
    11:00 +37°C° 0 mm 1 mps 746 mmHg 35%
    12:00 +39°C° 0 mm 1 mps 745 mmHg 32%
    13:00 +40°C° 0 mm 1 mps 744 mmHg 28%
    14:00 +39°C° 0 mm 1 mps 744 mmHg 32%
    15:00 +37°C° 0 mm 1 mps 743 mmHg 35%
    16:00 +37°C° 0 mm 2 mps 742 mmHg 38%
    17:00 +35°C° 0 mm 2 mps 743 mmHg 46%
    18:00 +32°C° 0 mm 2 mps 744 mmHg 55%
    19:00 +30°C° 0 mm 2 mps 744 mmHg 64%
    20:00 +29°C° 0 mm 2 mps 744 mmHg 66%
    21:00 +28°C° 0 mm 2 mps 745 mmHg 69%
    22:00 +28°C° 0 mm 1 mps 745 mmHg 72%
    23:00 +27°C° 0 mm 1 mps 745 mmHg 74%

    Day after tomorrow, 31 January, Friday

    Time Temperature Precipitation Wind Pressure Humidity
    00:00 +26°C° 0 mm 1 mps 745 mmHg 76%
    01:00 +26°C° 0 mm 1 mps 745 mmHg 78%
    02:00 +26°C° 0 mm 1 mps 744 mmHg 79%
    03:00 +25°C° 0 mm 1 mps 744 mmHg 80%
    04:00 +25°C° 0 mm 1 mps 744 mmHg 81%
    05:00 +23°C° 0 mm 0 mps 745 mmHg 79%
    06:00 +24°C° 0 mm 0 mps 745 mmHg 76%
    07:00 +25°C° 0 mm 0 mps 746 mmHg 74%
    08:00 +29°C° 0 mm 1 mps 746 mmHg 64%
    09:00 +32°C° 0 mm 1 mps 746 mmHg 55%
    10:00 +35°C° 0 mm 1 mps 747 mmHg 45%
    11:00 +36°C° 0 mm 1 mps 746 mmHg 42%
    12:00 +38°C° 0 mm 2 mps 745 mmHg 39%
    13:00 +39°C° 0 mm 2 mps 745 mmHg 36%
    14:00 +37°C° 0.1 mm 2 mps 744 mmHg 40%
    15:00 +35°C° 0.1 mm 1 mps 743 mmHg 44%
    16:00 +34°C° 0.1 mm 1 mps 743 mmHg 48%
    17:00 +32°C° 0 mm 1 mps 743 mmHg 54%
    18:00 +31°C° 0 mm 2 mps 744 mmHg 59%
    19:00 +30°C° 0 mm 2 mps 744 mmHg 65%
    20:00 +29°C° 0 mm 2 mps 744 mmHg 69%
    21:00 +28°C° 0 mm 2 mps 745 mmHg 72%
    22:00 +27°C° 0 mm 1 mps 745 mmHg 76%
    23:00 +26°C° 0 mm 1 mps 745 mmHg 78%

    1 February, Saturday

    Time Temperature Precipitation Wind Pressure Humidity
    00:00 +26°C° 0 mm 1 mps 745 mmHg 81%
    01:00 +25°C° 0 mm 1 mps 745 mmHg 83%
    02:00 +25°C° 0 mm 1 mps 745 mmHg 85%
    03:00 +25°C° 0 mm 1 mps 745 mmHg 86%
    04:00 +24°C° 0 mm 1 mps 745 mmHg 88%
    05:00 +25°C° 0 mm 1 mps 745 mmHg 85%
    06:00 +23°C° 0 mm 0 mps 746 mmHg 82%
    07:00 +24°C° 0 mm 0 mps 746 mmHg 78%
    08:00 +29°C° 0 mm 1 mps 747 mmHg 67%
    09:00 +32°C° 0 mm 1 mps 747 mmHg 56%
    10:00 +35°C° 0 mm 1 mps 747 mmHg 46%
    11:00 +35°C° 0 mm 1 mps 746 mmHg 43%
    12:00 +36°C° 0 mm 1 mps 745 mmHg 40%
    13:00 +37°C° 0 mm 1 mps 745 mmHg 37%
    14:00 +37°C° 0 mm 1 mps 744 mmHg 37%
    15:00 +36°C° 0 mm 1 mps 743 mmHg 38%
    16:00 +36°C° 0 mm 1 mps 742 mmHg 38%
    17:00 +34°C° 0 mm 1 mps 743 mmHg 48%
    18:00 +31°C° 0 mm 1 mps 743 mmHg 57%
    19:00 +29°C° 0 mm 2 mps 743 mmHg 67%
    20:00 +28°C° 0 mm 1 mps 744 mmHg 71%
    21:00 +27°C° 0 mm 1 mps 744 mmHg 75%
    22:00 +26°C° 0 mm 1 mps 745 mmHg 79%
    23:00 +26°C° 0 mm 1 mps 744 mmHg 79%

    2 February, Sunday

    Time Temperature Precipitation Wind Pressure Humidity
    00:00 +25°C° 0 mm 1 mps 744 mmHg 80%
    01:00 +25°C° 0 mm 1 mps 744 mmHg 81%
    02:00 +25°C° 0 mm 1 mps 744 mmHg 81%
    03:00 +24°C° 0 mm 1 mps 744 mmHg 82%
    04:00 +24°C° 0 mm 1 mps 744 mmHg 82%
    05:00 +25°C° 0 mm 1 mps 745 mmHg 80%
    06:00 +25°C° 0 mm 1 mps 745 mmHg 77%
    07:00 +24°C° 0 mm 0 mps 746 mmHg 75%
    08:00 +28°C° 0 mm 1 mps 746 mmHg 64%
    09:00 +31°C° 0 mm 2 mps 746 mmHg 53%
    10:00 +34°C° 0 mm 2 mps 747 mmHg 42%
    11:00 +36°C° 0 mm 2 mps 746 mmHg 37%
    12:00 +37°C° 0 mm 2 mps 745 mmHg 32%
    13:00 +38°C° 0 mm 2 mps 744 mmHg 28%
    14:00 +38°C° 0 mm 2 mps 744 mmHg 28%
    15:00 +38°C° 0 mm 2 mps 743 mmHg 28%
    16:00 +37°C° 0 mm 2 mps 743 mmHg 28%
    17:00 +35°C° 0 mm 2 mps 743 mmHg 37%
    18:00 +31°C° 0 mm 2 mps 743 mmHg 47%
    19:00 +29°C° 0 mm 1 mps 743 mmHg 56%
    20:00 +28°C° 0 mm 1 mps 744 mmHg 63%
    21:00 +27°C° 0 mm 1 mps 744 mmHg 69%
    22:00 +26°C° 0 mm 1 mps 745 mmHg 75%
    23:00 +25°C° 0 mm 1 mps 745 mmHg 75%

    3 February, Monday

    Time Temperature Precipitation Wind Pressure Humidity
    00:00 +25°C° 0 mm 1 mps 745 mmHg 75%
    01:00 +24°C° 0 mm 1 mps 745 mmHg 76%
    02:00 +24°C° 0 mm 1 mps 745 mmHg 77%
    03:00 +24°C° 0 mm 1 mps 745 mmHg 77%
    04:00 +23°C° 0 mm 1 mps 745 mmHg 78%
    05:00 +24°C° 0 mm 1 mps 745 mmHg 76%
    06:00 +22°C° 0 mm 0 mps 746 mmHg 75%
    07:00 +23°C° 0 mm 0 mps 746 mmHg 73%
    08:00 +28°C° 0 mm 1 mps 747 mmHg 62%
    09:00 +31°C° 0 mm 1 mps 747 mmHg 51%
    10:00 +35°C° 0 mm 2 mps 747 mmHg 40%
    11:00 +36°C° 0 mm 2 mps 746 mmHg 35%
    12:00 +38°C° 0 mm 2 mps 746 mmHg 30%
    13:00 +39°C° 0 mm 2 mps 745 mmHg 25%
    14:00 +39°C° 0 mm 2 mps 744 mmHg 25%
    15:00 +37°C° 0 mm 1 mps 744 mmHg 25%
    16:00 +37°C° 0 mm 1 mps 743 mmHg 25%
    17:00 +35°C° 0 mm 2 mps 744 mmHg 37%
    18:00 +31°C° 0 mm 2 mps 744 mmHg 50%
    19:00 +28°C° 0 mm 2 mps 744 mmHg 62%
    20:00 +27°C° 0 mm 2 mps 745 mmHg 67%
    21:00 +26°C° 0 mm 2 mps 745 mmHg 72%
    22:00 +25°C° 0 mm 1 mps 746 mmHg 77%
    23:00 +24°C° 0 mm 1 mps 746 mmHg 78%
    Show more